[[{"header":{"parameterUnit":"m.s-1","parameterCategory":1,"la1":30.2991,"la2":30.254,"lo1":-89.0895,"lo2":-89.0444,"dy":0.0017,"dx":0.0017,"nx":28,"ny":28,"refTime":"2025-12-24T09:00:00:Z","depth":0,"parameterNumber":2,"parameterNumberName":"U-component_of_WINDS"},"data":[0,0,0,0,0,0,0,0,0,0,0,0,0,0,0,0,0,0,0,0,0,0,0,0,0,0,0,0,0,0,0,0,0,0,0,0,0,0,0,0,0,0,0,0,0,0,0,0,0,0,0,0,0,0,0,0,0,0,-1.2499,-1.2499,0,-1.2504,-1.2504,-1.2504,-1.2446,-1.2445,-1.2443,-1.2442,-1.2446,-1.2448,-1.2449,0,0,0,0,0,0,0,0,0,0,0,0,0,-1.2441,-1.2442,-1.2499,-1.2499,-1.2499,-1.2504,-1.2504,-1.2504,-1.2447,-1.2445,-1.2443,-1.2441,-1.2446,-1.2448,-1.245,0,0,0,0,0,0,0,0,0,0,0,0,0,-1.2458,-1.2443,-1.2499,-1.2471,-1.2469,-1.2504,-1.2504,-1.2504,-1.2447,-1.2445,-1.2442,-1.244,-1.2445,-1.2447,-1.245,-1.2512,0,0,-1.2457,-1.2458,0,0,0,0,0,0,0,0,-1.2457,-1.246,-1.2475,-1.2473,-1.2471,-1.2472,-1.2485,-1.2506,-1.2448,-1.2455,-1.2442,-1.2439,-1.2457,-1.2458,-1.2464,-1.2512,-1.2512,-1.2457,-1.2459,-1.246,-1.246,0,0,0,0,0,0,0,-1.2456,-1.246,-1.2501,-1.2476,-1.2473,-1.2459,-1.2458,-1.2489,-1.2469,-1.2454,-1.245,-1.2452,-1.2455,-1.2462,-1.2464,-1.2512,-1.2457,-1.2459,-1.2461,-1.2462,-1.2612,-1.2614,0,0,0,0,0,0,-1.2459,-1.2459,-1.2501,-1.2501,-1.2458,-1.2462,-1.2461,-1.2474,-1.2469,-1.2466,-1.2454,-1.2449,-1.2459,-1.2461,-1.2464,-1.2536,-1.246,-1.2462,-1.2463,-1.2609,-1.2612,-1.2615,0,0,0,0,0,0,-1.2458,-1.2463,-1.2501,-1.2479,-1.2483,-1.2465,-1.248,-1.2475,-1.2482,-1.2468,-1.2464,-1.2464,-1.2457,-1.246,-1.25,-1.2535,-1.2463,-1.2465,-1.2606,-1.261,-1.2614,-1.2681,0,0,0,0,0,0,-1.2456,-1.2463,-1.2486,-1.248,-1.2484,-1.2537,-1.2482,-1.2477,-1.2486,-1.248,-1.2477,-1.2474,-1.2456,-1.2497,-1.2503,-1.2537,-1.2467,-1.2603,-1.2608,-1.2612,-1.2676,-1.2687,-1.2697,0,0,0,0,0,-1.2454,-1.2505,-1.2488,-1.2493,-1.2513,-1.2539,-1.2542,-1.2519,-1.2489,-1.2513,-1.2504,-1.2474,-1.2531,-1.2502,-1.2507,-1.2543,-1.26,-1.2606,-1.2612,-1.2671,-1.2685,-1.2696,0,0,0,0,0,0,-1.2515,-1.2503,-1.2484,-1.2534,-1.2538,-1.253,-1.2558,-1.2534,-1.2547,-1.2541,-1.2512,-1.2512,-1.2557,-1.2554,-1.2522,-1.2603,-1.256,-1.2568,-1.2603,-1.2616,-1.2626,-1.2626,-1.2469,0,0,0,0,0,-1.2535,-1.2557,-1.2546,-1.2591,-1.2594,-1.2576,-1.2587,-1.2569,-1.2572,-1.2574,-1.2567,-1.2572,-1.259,-1.2603,-1.2619,-1.2675,-1.2674,-1.2703,-1.2713,-1.2722,-1.2728,-1.2758,-1.2771,-1.2634,-1.2634,-1.2634,0,0,-1.2575,-1.2571,-1.2587,-1.2603,-1.2604,-1.2628,-1.2578,-1.2605,-1.2623,-1.2578,-1.2615,-1.2611,-1.2614,-1.2662,-1.2683,-1.2661,-1.2766,-1.2729,-1.2736,-1.2738,-1.2766,-1.2779,-1.279,-1.2638,-1.2637,-1.2636,0,0,-1.266,-1.2659,-1.2697,-1.27,-1.2702,-1.269,-1.2699,-1.2694,-1.269,-1.2727,-1.2694,-1.2715,-1.2747,-1.2751,-1.2757,-1.2844,-1.2818,-1.2851,-1.2905,-1.2934,-1.2945,-1.2954,-1.2986,-1.2998,-1.2857,-1.2857,-1.2857,0,-1.2709,-1.2744,-1.272,-1.275,-1.2758,-1.2719,-1.2757,-1.276,-1.2768,-1.2775,-1.275,-1.2791,-1.279,-1.2839,-1.286,-1.2866,-1.2876,-1.2851,-1.2945,-1.2955,-1.2963,-1.2993,-1.3005,-1.2861,-1.2861,-1.286,-1.286,0,-1.2805,-1.283,-1.286,-1.2869,-1.2881,-1.2915,-1.2896,-1.2911,-1.2893,-1.2883,-1.2922,-1.2919,-1.2935,-1.2945,-1.2927,-1.2992,-1.2978,-1.295,-1.2906,-1.298,-1.3008,-1.3019,-1.2867,-1.2866,-1.2864,-1.2863,0,0,-1.2928,-1.2924,-1.2935,-1.2939,-1.2939,-1.2958,-1.2991,-1.3006,-1.302,-1.3026,-1.3053,-1.3082,-1.3056,-1.3063,-1.3046,-1.3072,-1.3142,-1.304,-1.304,-1.3059,-1.3213,-1.3234,-1.3248,-1.3124,-1.3126,-1.3128,-1.3213,0,-1.3011,-1.3067,-1.3046,-1.3103,-1.3126,-1.3089,-1.3118,-1.3121,-1.3113,-1.3132,-1.3123,-1.3144,-1.3108,-1.3112,-1.3136,-1.3128,-1.3172,-1.3122,-1.3149,-1.315,-1.315,-1.3262,-1.3285,-1.3365,-1.3224,-1.3225,-1.3227,0,-1.3115,-1.3127,-1.3187,-1.3184,-1.3192,-1.3218,-1.3231,-1.3249,-1.3253,-1.3245,-1.3254,-1.3231,-1.3262,-1.3219,-1.3263,-1.3229,-1.3239,-1.3237,-1.324,-1.3241,-1.3193,-1.3267,-1.339,-1.3402,-1.3243,-1.3242,-1.3241,0,-1.32,-1.323,-1.327,-1.3274,-1.3272,-1.3291,-1.3291,-1.3291,-1.3302,-1.3314,-1.332,-1.3335,-1.3343,-1.3355,-1.3337,-1.3307,-1.3384,-1.3339,-1.3379,-1.3379,-1.3396,-1.3396,-1.3523,-1.3403,-1.3403,-1.3403,-1.3402,0,-1.3295,-1.3333,-1.3308,-1.3332,-1.3374,-1.335,-1.3391,-1.3387,-1.3388,-1.3411,-1.3381,-1.3403,-1.3377,-1.3397,-1.3383,-1.3422,-1.3426,-1.3421,-1.3417,-1.3424,-1.3425,-1.343,-1.3424,-1.3406,-1.3405,-1.3405,-1.3404,0,-1.3395,-1.338,-1.3421,-1.3416,-1.3415,-1.3446,-1.3441,-1.3464,-1.3454,-1.3484,-1.3489,-1.3474,-1.3496,-1.348,-1.3501,-1.3492,-1.3543,-1.3531,-1.3542,-1.3539,-1.358,-1.3576,-1.3715,-1.3732,-1.3601,-1.3603,-1.3604,0,-1.3457,-1.3485,-1.3483,-1.3497,-1.3498,-1.352,-1.3531,-1.3509,-1.3522,-1.3528,-1.355,-1.357,-1.3584,-1.3621,-1.3612,-1.3629,-1.3617,-1.3664,-1.3619,-1.3625,-1.3618,-1.3616,-1.3619,-1.3673,-1.3675,-1.3676,-1.3677,0,-1.3568,-1.3559,-1.3576,-1.3592,-1.3606,-1.3616,-1.3624,-1.3637,-1.3615,-1.3631,-1.3653,-1.3664,-1.3687,-1.3706,-1.372,-1.372,-1.3695,-1.3692,-1.3702,-1.3709,-1.3714,-1.3712,-1.3567,-1.3688,-1.3687,-1.3686,-1.3686,-1.3685,-1.3651,-1.3675,-1.3677,-1.3697,-1.3701,-1.371,-1.3731,-1.3724,-1.3743,-1.3759,-1.3745,-1.3772,-1.3775,-1.3791,-1.3794,-1.3815,-1.3795,-1.381,-1.3814,-1.3818,-1.3823,-1.3711,-1.3817,-1.3817,-1.3816,-1.3816,-1.3816,0,-1.376,-1.376,-1.3779,-1.3792,-1.3808,-1.3784,-1.3792,-1.3807,-1.3831,-1.3836,-1.3852,-1.3878,-1.3897,-1.389,-1.3907,-1.3925,-1.3914,-1.393,-1.3929,-1.3929,-1.384,-1.3829,-1.3939,-1.3939,-1.3939,-1.3939,-1.3939,-1.3939,-1.3819,-1.3858,-1.385,-1.3891,-1.389,-1.3917,-1.3924,-1.3932,-1.3936,-1.3966,-1.3982,-1.3978,-1.3978,-1.3995,-1.4012,-1.4009,-1.4017,-1.4038,-1.4031,-1.3948,-1.3936,-1.3924,-1.3914,-1.404,-1.404,-1.4119,-1.4119,-1.412]},{"header":{"parameterUnit":"m.s-1","parameterCategory":1,"la1":30.2991,"la2":30.254,"lo1":-89.0895,"lo2":-89.0444,"dy":0.0017,"dx":0.0017,"nx":28,"ny":28,"refTime":"2025-12-24T09:00:00:Z","depth":0,"parameterNumber":3,"parameterNumberName":"V-component_of_WINDS"},"data":[0,0,0,0,0,0,0,0,0,0,0,0,0,0,0,0,0,0,0,0,0,0,0,0,0,0,0,0,0,0,0,0,0,0,0,0,0,0,0,0,0,0,0,0,0,0,0,0,0,0,0,0,0,0,0,0,0,0,-0.487,-0.487,0,-0.4861,-0.4861,-0.4861,-0.4843,-0.4843,-0.4842,-0.4842,-0.4833,-0.4833,-0.4833,0,0,0,0,0,0,0,0,0,0,0,0,0,-0.4871,-0.4871,-0.487,-0.487,-0.487,-0.4861,-0.4861,-0.4861,-0.4843,-0.4843,-0.4842,-0.4842,-0.4833,-0.4833,-0.4833,0,0,0,0,0,0,0,0,0,0,0,0,0,-0.4867,-0.4871,-0.487,-0.486,-0.4859,-0.4861,-0.4861,-0.486,-0.4843,-0.4843,-0.4842,-0.4842,-0.4833,-0.4833,-0.4833,-0.4844,0,0,-0.4834,-0.4834,0,0,0,0,0,0,0,0,-0.4868,-0.4867,-0.4862,-0.4861,-0.486,-0.4853,-0.4858,-0.4855,-0.4843,-0.4849,-0.4842,-0.4841,-0.484,-0.484,-0.4839,-0.4844,-0.4844,-0.4834,-0.4834,-0.4834,-0.4834,0,0,0,0,0,0,0,-0.4868,-0.4868,-0.4866,-0.4861,-0.486,-0.4856,-0.4854,-0.4857,-0.4848,-0.4849,-0.4847,-0.4847,-0.4839,-0.4839,-0.4839,-0.4843,-0.4834,-0.4834,-0.4834,-0.4834,-0.4855,-0.4855,0,0,0,0,0,0,-0.487,-0.4868,-0.4867,-0.4866,-0.4862,-0.4856,-0.4855,-0.4855,-0.4848,-0.4846,-0.4847,-0.4846,-0.4839,-0.4839,-0.4838,-0.4849,-0.4834,-0.4834,-0.4834,-0.4854,-0.4855,-0.4855,0,0,0,0,0,0,-0.487,-0.487,-0.4867,-0.4867,-0.4866,-0.4856,-0.4857,-0.4855,-0.4855,-0.4846,-0.4844,-0.4848,-0.4839,-0.4838,-0.4842,-0.4849,-0.4834,-0.4834,-0.4854,-0.4854,-0.4855,-0.4872,0,0,0,0,0,0,-0.487,-0.487,-0.4874,-0.4867,-0.4866,-0.4872,-0.4858,-0.4856,-0.4855,-0.4853,-0.4847,-0.4845,-0.4838,-0.4842,-0.4843,-0.4849,-0.4834,-0.4853,-0.4854,-0.4855,-0.4871,-0.4874,-0.4876,0,0,0,0,0,-0.487,-0.488,-0.4875,-0.4875,-0.4871,-0.4872,-0.4872,-0.4863,-0.4856,-0.486,-0.4854,-0.4846,-0.4848,-0.4843,-0.4843,-0.4849,-0.4853,-0.4854,-0.4855,-0.487,-0.4873,-0.4876,0,0,0,0,0,0,-0.489,-0.4879,-0.4873,-0.4881,-0.4878,-0.4869,-0.4874,-0.4867,-0.4865,-0.4864,-0.4853,-0.4852,-0.4857,-0.4854,-0.4848,-0.4858,-0.4849,-0.485,-0.4861,-0.4863,-0.4866,-0.4866,-0.4834,0,0,0,0,0,-0.4895,-0.4896,-0.4887,-0.4895,-0.4893,-0.4884,-0.4884,-0.4877,-0.4873,-0.4872,-0.4867,-0.4863,-0.4862,-0.4863,-0.4862,-0.487,-0.4868,-0.4875,-0.4877,-0.4879,-0.488,-0.4882,-0.4885,-0.4859,-0.4859,-0.4859,0,0,-0.4906,-0.49,-0.4902,-0.4899,-0.4895,-0.4897,-0.4883,-0.4886,-0.4886,-0.4872,-0.4876,-0.4872,-0.4867,-0.4872,-0.4875,-0.487,-0.4886,-0.488,-0.4882,-0.4882,-0.4884,-0.4886,-0.4888,-0.4859,-0.4859,-0.4859,0,0,-0.4926,-0.4923,-0.4928,-0.4924,-0.4919,-0.4912,-0.4913,-0.4906,-0.4902,-0.4905,-0.4894,-0.4894,-0.4895,-0.4891,-0.4889,-0.4906,-0.4898,-0.4906,-0.4918,-0.492,-0.4922,-0.4924,-0.4929,-0.4931,-0.4907,-0.4907,-0.4907,0,-0.4941,-0.4942,-0.4932,-0.4934,-0.4933,-0.4919,-0.4924,-0.4921,-0.4916,-0.4915,-0.4909,-0.4907,-0.4903,-0.4907,-0.4911,-0.4911,-0.4911,-0.4907,-0.4923,-0.4924,-0.4926,-0.493,-0.4932,-0.4908,-0.4908,-0.4908,-0.4908,0,-0.496,-0.4961,-0.4966,-0.496,-0.4959,-0.4963,-0.4952,-0.4952,-0.4945,-0.4939,-0.4941,-0.4935,-0.4932,-0.4933,-0.4926,-0.4935,-0.4932,-0.4925,-0.4915,-0.4929,-0.4933,-0.4935,-0.4909,-0.4909,-0.4909,-0.4909,0,0,-0.4994,-0.498,-0.4982,-0.4979,-0.4971,-0.4971,-0.4974,-0.497,-0.497,-0.4966,-0.4967,-0.4966,-0.4959,-0.4957,-0.495,-0.4952,-0.4963,-0.4944,-0.4943,-0.4947,-0.4972,-0.4977,-0.4979,-0.4958,-0.4958,-0.4958,-0.4972,0,-0.5012,-0.5016,-0.5005,-0.5011,-0.5011,-0.4997,-0.4999,-0.4994,-0.4988,-0.4986,-0.4979,-0.4979,-0.4969,-0.4968,-0.4969,-0.4962,-0.4968,-0.4961,-0.4958,-0.4958,-0.496,-0.4982,-0.4988,-0.5001,-0.4973,-0.4974,-0.4974,0,-0.5035,-0.5031,-0.5036,-0.5026,-0.5026,-0.5028,-0.5023,-0.5022,-0.5015,-0.501,-0.5007,-0.4997,-0.4998,-0.4988,-0.4989,-0.4984,-0.4982,-0.4978,-0.4978,-0.4978,-0.4967,-0.4981,-0.5005,-0.5007,-0.4976,-0.4976,-0.4976,0,-0.5058,-0.5054,-0.5056,-0.5054,-0.5042,-0.5044,-0.5039,-0.5031,-0.5029,-0.5025,-0.5023,-0.5019,-0.5016,-0.5013,-0.5003,-0.4997,-0.5004,-0.4993,-0.4999,-0.4999,-0.5001,-0.5001,-0.5025,-0.5001,-0.5001,-0.5001,-0.5001,0,-0.5079,-0.5083,-0.5066,-0.5068,-0.5071,-0.5059,-0.5062,-0.5056,-0.5049,-0.5049,-0.5036,-0.5036,-0.5022,-0.502,-0.5012,-0.5013,-0.5012,-0.5008,-0.5005,-0.5009,-0.5009,-0.5007,-0.5006,-0.5001,-0.5001,-0.5001,-0.5001,0,-0.5106,-0.5095,-0.5097,-0.5085,-0.5082,-0.5085,-0.5074,-0.5075,-0.5067,-0.5066,-0.5065,-0.5053,-0.5049,-0.5038,-0.5033,-0.5027,-0.503,-0.5026,-0.5032,-0.5031,-0.5037,-0.5036,-0.5059,-0.5061,-0.5037,-0.5037,-0.5037,0,-0.5121,-0.5123,-0.5111,-0.5109,-0.5105,-0.5103,-0.51,-0.5087,-0.5085,-0.5076,-0.5077,-0.5072,-0.5068,-0.5063,-0.5054,-0.5049,-0.5044,-0.5053,-0.5043,-0.5046,-0.5043,-0.5043,-0.5043,-0.5055,-0.5055,-0.5055,-0.5056,0,-0.5147,-0.5141,-0.5138,-0.5132,-0.5129,-0.5124,-0.5118,-0.5118,-0.5103,-0.5101,-0.5097,-0.5093,-0.5086,-0.5082,-0.5075,-0.5069,-0.506,-0.5058,-0.5059,-0.5063,-0.5066,-0.5063,-0.5037,-0.5058,-0.5058,-0.5058,-0.5057,-0.5057,-0.5168,-0.5169,-0.516,-0.5156,-0.515,-0.5144,-0.5143,-0.5134,-0.5131,-0.5124,-0.5116,-0.5113,-0.5104,-0.5094,-0.5088,-0.5085,-0.508,-0.5082,-0.5082,-0.5083,-0.5084,-0.5066,-0.5084,-0.5084,-0.5084,-0.5084,-0.5084,0,-0.5193,-0.5186,-0.5183,-0.5174,-0.5171,-0.5161,-0.5154,-0.5151,-0.5148,-0.5141,-0.5136,-0.5131,-0.5126,-0.5115,-0.5108,-0.5108,-0.5103,-0.5106,-0.5106,-0.5105,-0.5089,-0.5088,-0.511,-0.511,-0.511,-0.511,-0.511,-0.511,-0.5206,-0.5206,-0.5199,-0.5195,-0.5188,-0.5184,-0.5181,-0.5175,-0.5169,-0.5163,-0.5158,-0.5151,-0.5141,-0.5134,-0.5128,-0.5125,-0.5123,-0.5128,-0.5123,-0.5109,-0.5106,-0.5104,-0.5103,-0.5127,-0.5127,-0.5139,-0.5139,-0.5139]}]]